| time (UTC) | temp C | wind direction | speed KPH | gust KPH | rain 1hr cm | rain 24hr cm | rain mn cm | humidity % | barometer mb |
| 20260506204042 | 12 | 51 | 14.5 | 14.5 | 0.00 | 0.58 | 0.58 | 89 | 1011.3 |
| 20260506203112 | 12 | 78 | 11.3 | 12.9 | 0.00 | 0.58 | 0.58 | 89 | 1012.0 |
| 20260506202112 | 12 | 32 | 8.0 | 14.5 | 0.00 | 0.58 | 0.58 | 89 | 1012.0 |
| 20260506201112 | 13 | 92 | 4.8 | 19.3 | 0.00 | 0.58 | 0.58 | 89 | 1012.1 |
| 20260506200112 | 13 | 68 | 4.8 | 17.7 | 0.00 | 0.58 | 0.58 | 89 | 1011.2 |
| 20260506195042 | 13 | 58 | 6.4 | 19.3 | 0.00 | 0.58 | 0.58 | 89 | 1011.4 |
| 20260506193112 | 13 | 360 | 22.5 | 24.1 | 0.00 | 0.58 | 0.58 | 89 | 1010.1 |
| 20260506192112 | 13 | 79 | 6.4 | 19.3 | 0.00 | 0.58 | 0.58 | 89 | 1011.7 |
| 20260506191112 | 13 | 109 | 11.3 | 19.3 | 0.00 | 0.58 | 0.58 | 90 | 1011.0 |
| 20260506190112 | 13 | 59 | 17.7 | 22.5 | 0.00 | 0.58 | 0.58 | 91 | 1010.8 |
| 20260506185112 | 13 | 74 | 6.4 | 14.5 | 0.00 | 0.58 | 0.58 | 91 | 1011.4 |
| 20260506184112 | 13 | 83 | 8.0 | 17.7 | 0.05 | 0.58 | 0.58 | 91 | 1011.1 |
| 20260506183112 | 13 | 55 | 8.0 | 16.1 | 0.10 | 0.58 | 0.58 | 91 | 1011.0 |
| 20260506182042 | 13 | 46 | 1.6 | 16.1 | 0.20 | 0.58 | 0.58 | 91 | 1012.0 |
| 20260506181112 | 13 | 85 | 8.0 | 17.7 | 0.36 | 0.58 | 0.58 | 91 | 1011.7 |
| 20260506180112 | 13 | 74 | 3.2 | 12.9 | 0.36 | 0.58 | 0.58 | 92 | 1011.6 |
| 20260506175112 | 13 | 74 | 11.3 | 19.3 | 0.36 | 0.58 | 0.58 | 91 | 1011.4 |
| 20260506174042 | 13 | 70 | 9.7 | 14.5 | 0.36 | 0.53 | 0.53 | 91 | 1012.5 |
| 20260506173112 | 13 | 65 | 1.6 | 16.1 | 0.33 | 0.48 | 0.48 | 91 | 1014.2 |
| 20260506170112 | 13 | 69 | 6.4 | 11.3 | 0.18 | 0.23 | 0.23 | 91 | 1013.1 |
| 20260506165042 | 13 | 69 | 8.0 | 12.9 | 0.18 | 0.23 | 0.23 | 91 | 1013.0 |
| 20260506164113 | 13 | 84 | 4.8 | 12.9 | 0.13 | 0.18 | 0.18 | 91 | 1012.5 |
| 20260506163113 | 14 | 77 | 4.8 | 12.9 | 0.13 | 0.15 | 0.15 | 91 | 1013.0 |
| 20260506162042 | 14 | 49 | 3.2 | 17.7 | 0.03 | 0.05 | 0.05 | 92 | 1012.2 |
| 20260506161113 | 14 | 88 | 6.4 | 19.3 | 0.03 | 0.05 | 0.05 | 91 | 1011.9 |
| 20260506160112 | 14 | 57 | 6.4 | 12.9 | 0.03 | 0.05 | 0.05 | 91 | 1012.4 |
| 20260506155112 | 14 | 53 | 6.4 | 12.9 | 0.03 | 0.05 | 0.05 | 91 | 1011.8 |
| 20260506154042 | 15 | 66 | 6.4 | 11.3 | 0.03 | 0.05 | 0.05 | 91 | 1012.3 |
| 20260506153112 | 14 | 61 | 4.8 | 8.0 | 0.03 | 0.03 | 0.03 | 91 | 1012.0 |
| 20260506151042 | 15 | 71 | 0.0 | 8.0 | 0.03 | 0.03 | 0.03 | 91 | 1011.4 |
| 20260506145113 | 14 | 63 | 4.8 | 14.5 | 0.03 | 0.03 | 0.03 | 91 | 1011.1 |
| 20260506144043 | 15 | 67 | 6.4 | 6.4 | 0.03 | 0.03 | 0.03 | 91 | 1011.2 |
| 20260506141042 | 14 | 290 | 1.6 | 6.4 | 0.00 | 0.00 | 0.00 | 91 | 1010.8 |
| 20260506135043 | 14 | 294 | 0.0 | 4.8 | 0.00 | 0.00 | 0.00 | 90 | 1010.8 |
| 20260506134043 | 14 | 294 | 1.6 | 3.2 | 0.00 | 0.00 | 0.00 | 90 | 1010.5 |
| 20260506133043 | 14 | 294 | 0.0 | 4.8 | 0.00 | 0.00 | 0.00 | 90 | 1010.5 |
| 20260506131113 | 14 | 291 | 0.0 | 4.8 | 0.00 | 0.00 | 0.00 | 89 | 1010.5 |
| 20260506130043 | 14 | 292 | 3.2 | 11.3 | 0.00 | 0.00 | 0.00 | 88 | 1010.3 |
| 20260506125043 | 15 | 286 | 1.6 | 6.4 | 0.00 | 0.00 | 0.00 | 87 | 1010.0 |
| 20260506124043 | 15 | 293 | 3.2 | 8.0 | 0.00 | 0.00 | 0.00 | 86 | 1009.9 |
| 20260506123043 | 15 | 291 | 0.0 | 8.0 | 0.00 | 0.00 | 0.00 | 86 | 1009.7 |
| 20260506122043 | 15 | 288 | 3.2 | 6.4 | 0.00 | 0.00 | 0.00 | 86 | 1009.7 |
| 20260506121043 | 15 | 294 | 1.6 | 6.4 | 0.00 | 0.00 | 0.00 | 86 | 1009.4 |
| 20260506120043 | 15 | 322 | 0.0 | 6.4 | 0.00 | 0.00 | 0.00 | 86 | 1009.0 |
| 20260506115043 | 15 | 232 | 3.2 | 4.8 | 0.00 | 0.00 | 0.00 | 86 | 1009.0 |
| 20260506114043 | 15 | 232 | 0.0 | 6.4 | 0.00 | 0.00 | 0.00 | 86 | 1008.6 |
| 20260506112043 | 15 | 299 | 0.0 | 8.0 | 0.00 | 0.00 | 0.00 | 85 | 1008.3 |
| 20260506111043 | 15 | 277 | 3.2 | 6.4 | 0.00 | 0.00 | 0.00 | 84 | 1008.2 |
| 20260506110113 | 15 | 277 | 0.0 | 6.4 | 0.00 | 0.00 | 0.00 | 84 | 1008.0 |
| 20260506105043 | 15 | 277 | 1.6 | 6.4 | 0.00 | 0.00 | 0.00 | 83 | 1007.9 |
| 20260506104043 | 15 | 259 | 1.6 | 11.3 | 0.00 | 0.00 | 0.00 | 84 | 1008.0 |
| 20260506103043 | 15 | 289 | 1.6 | 11.3 | 0.00 | 0.00 | 0.00 | 83 | 1007.5 |
| 20260506102043 | 15 | 222 | 4.8 | 6.4 | 0.00 | 0.00 | 0.00 | 83 | 1007.3 |
| 20260506101043 | 15 | 279 | 0.0 | 6.4 | 0.00 | 0.00 | 0.00 | 83 | 1007.3 |
| 20260506100113 | 15 | 262 | 0.0 | 4.8 | 0.00 | 0.00 | 0.00 | 83 | 1007.1 |
| 20260506095113 | 16 | 294 | 0.0 | 6.4 | 0.00 | 0.00 | 0.00 | 83 | 1007.0 |
| 20260506094113 | 16 | 288 | 0.0 | 8.0 | 0.00 | 0.00 | 0.00 | 83 | 1006.9 |
| 20260506093113 | 16 | 287 | 4.8 | 9.7 | 0.00 | 0.00 | 0.00 | 83 | 1006.8 |
| 20260506092043 | 16 | 215 | 1.6 | 4.8 | 0.00 | 0.00 | 0.00 | 83 | 1006.8 |
| 20260506091043 | 16 | 232 | 1.6 | 6.4 | 0.00 | 0.00 | 0.00 | 83 | 1006.9 |
| 20260506090043 | 16 | 231 | 6.4 | 6.4 | 0.00 | 0.00 | 0.00 | 83 | 1006.7 |
| 20260506085043 | 16 | 231 | 0.0 | 3.2 | 0.00 | 0.00 | 0.00 | 83 | 1006.6 |
| 20260506084043 | 16 | 231 | 0.0 | 4.8 | 0.00 | 0.00 | 0.00 | 83 | 1006.5 |
| 20260506083043 | 16 | 230 | 0.0 | 6.4 | 0.00 | 0.00 | 0.00 | 83 | 1006.2 |
| 20260506082043 | 16 | 284 | 1.6 | 4.8 | 0.00 | 0.00 | 0.00 | 83 | 1006.1 |
| 20260506080113 | 16 | 298 | 1.6 | 8.0 | 0.00 | 0.00 | 0.00 | 83 | 1006.1 |
| 20260506073043 | 16 | 290 | 1.6 | 11.3 | 0.00 | 0.00 | 0.00 | 81 | 1006.4 |
| 20260506072044 | 16 | 282 | 4.8 | 11.3 | 0.00 | 0.00 | 0.00 | 81 | 1006.4 |
| 20260506071043 | 16 | 296 | 1.6 | 6.4 | 0.00 | 0.00 | 0.00 | 81 | 1006.4 |
| 20260506062044 | 18 | 218 | 1.6 | 8.0 | 0.00 | 0.00 | 0.00 | 82 | 1005.4 |
| 20260506061044 | 18 | 283 | 1.6 | 11.3 | 0.00 | 0.00 | 0.00 | 82 | 1005.5 |
| 20260506051043 | 19 | 272 | 1.6 | 11.3 | 0.00 | 0.00 | 0.00 | 84 | 1005.4 |
| 20260506045113 | 20 | 230 | 3.2 | 4.8 | 0.00 | 0.00 | 0.00 | 83 | 1005.2 |
| 20260506044114 | 20 | 291 | 0.0 | 12.9 | 0.00 | 0.00 | 0.00 | 83 | 1005.3 |
| 20260506043114 | 20 | 272 | 1.6 | 11.3 | 0.00 | 0.00 | 0.00 | 83 | 1005.0 |
| 20260506042113 | 20 | 284 | 4.8 | 11.3 | 0.00 | 0.00 | 0.00 | 82 | 1004.8 |
| 20260506041114 | 21 | 211 | 1.6 | 11.3 | 0.00 | 0.00 | 0.00 | 82 | 1005.1 |
| 20260506040113 | 21 | 281 | 4.8 | 11.3 | 0.00 | 0.00 | 0.00 | 82 | 1005.0 |
| 20260506035114 | 22 | 279 | 4.8 | 11.3 | 0.00 | 0.00 | 0.00 | 82 | 1004.4 |
| 20260506034114 | 23 | 223 | 0.0 | 11.3 | 0.00 | 0.00 | 0.00 | 84 | 1004.6 |
| 20260506033113 | 23 | 295 | 4.8 | 8.0 | 0.00 | 0.00 | 0.00 | 89 | 1004.3 |
| 20260506031044 | 22 | 246 | 0.0 | 0.0 | 0.00 | 0.00 | 0.00 | 88 | 1003.2 |
| 20260506030114 | 23 | 246 | 0.0 | 1.6 | 0.00 | 0.00 | 0.00 | 88 | 1003.8 |
| 20260506025114 | 23 | 246 | 0.0 | 0.0 | 0.00 | 0.00 | 0.00 | 88 | 1003.6 |
| 20260506024044 | 23 | 246 | 0.0 | 0.0 | 0.00 | 0.00 | 0.00 | 88 | 1003.6 |
| 20260506023044 | 23 | 246 | 0.0 | 1.6 | 0.00 | 0.00 | 0.00 | 88 | 1003.5 |
| 20260506022114 | 23 | 246 | 0.0 | 1.6 | 0.00 | 0.00 | 0.00 | 87 | 1002.6 |
| 20260506021044 | 23 | 246 | 0.0 | 1.6 | 0.00 | 0.00 | 0.00 | 87 | 1003.0 |
| 20260506020114 | 23 | 246 | 0.0 | 1.6 | 0.00 | 0.00 | 0.00 | 86 | 1002.9 |
| 20260506015114 | 23 | 246 | 0.0 | 3.2 | 0.00 | 0.00 | 0.00 | 86 | 1002.9 |
| 20260506013044 | 24 | 246 | 0.0 | 1.6 | 0.00 | 0.00 | 0.00 | 86 | 1002.7 |
| 20260506012114 | 24 | 246 | 0.0 | 1.6 | 0.00 | 0.00 | 0.00 | 86 | 1002.5 |
| 20260506011044 | 24 | 246 | 0.0 | 3.2 | 0.00 | 0.00 | 0.00 | 85 | 1002.6 |
| 20260506010114 | 24 | 246 | 0.0 | 3.2 | 0.00 | 0.00 | 0.00 | 85 | 1002.5 |
| 20260506005114 | 25 | 246 | 0.0 | 0.0 | 0.00 | 0.00 | 0.00 | 85 | 1002.2 |
| 20260506002044 | 25 | 248 | 0.0 | 0.0 | 0.00 | 0.00 | 0.00 | 83 | 1002.2 |
| 20260506001114 | 26 | 248 | 0.0 | 3.2 | 0.00 | 0.00 | 0.00 | 82 | 1002.2 |
| 20260505235044 | 26 | 219 | 0.0 | 1.6 | 0.00 | 0.00 | 0.00 | 81 | 1002.4 |
| 20260505234044 | 26 | 219 | 1.6 | 4.8 | 0.00 | 0.00 | 0.00 | 79 | 1002.5 |
| 20260505233044 | 26 | 219 | 1.6 | 8.0 | 0.00 | 0.00 | 0.00 | 77 | 1002.5 |
| 20260505232044 | 27 | 189 | 1.6 | 8.0 | 0.00 | 0.00 | 0.00 | 76 | 1002.2 |
| 20260505231114 | 27 | 207 | 0.0 | 9.7 | 0.00 | 0.00 | 0.00 | 76 | 1002.0 |
| 20260505225114 | 27 | 216 | 0.0 | 8.0 | 0.00 | 0.00 | 0.00 | 75 | 1002.1 |
| 20260505224044 | 27 | 242 | 3.2 | 9.7 | 0.00 | 0.00 | 0.00 | 75 | 1002.1 |
| 20260505223044 | 27 | 209 | 3.2 | 9.7 | 0.00 | 0.00 | 0.00 | 74 | 1002.1 |
| 20260505221114 | 27 | 251 | 6.4 | 8.0 | 0.00 | 0.00 | 0.00 | 76 | 1002.3 |
| 20260505220044 | 27 | 238 | 1.6 | 12.9 | 0.00 | 0.00 | 0.00 | 74 | 1002.2 |
| 20260505215114 | 27 | 242 | 1.6 | 9.7 | 0.00 | 0.00 | 0.00 | 74 | 1002.1 |
| 20260505214045 | 27 | 217 | 1.6 | 9.7 | 0.00 | 0.00 | 0.00 | 75 | 1002.4 |
| 20260505213044 | 27 | 160 | 8.0 | 14.5 | 0.00 | 0.00 | 0.00 | 74 | 1002.6 |
| 20260505212044 | 27 | 235 | 4.8 | 12.9 | 0.00 | 0.00 | 0.00 | 74 | 1002.7 |
| 20260505211044 | 27 | 210 | 1.6 | 9.7 | 0.00 | 0.00 | 0.00 | 74 | 1002.8 |
| 20260505210044 | 27 | 215 | 0.0 | 14.5 | 0.00 | 0.00 | 0.00 | 74 | 1002.9 |